Regional Weather Roundup
Issued by NWS

Home | Current Version | Previous Version | Text Only | Print | Product List | Glossary On
Versions: 1 2 3 4 5 6 7 8 9 10 11 12 13 14 15 16 17 18 19 20 21 22 23 24 25 26 27 28 29 30 31 32 33 34 35 36 37 38 39 40 41 42 43 44 45 46 47 48 49 50
743
ASUS46 KLOX 080813
RWRCA

SOUTHERN CALIFORNIA WEATHER ROUNDUP
NATIONAL WEATHER SERVICE OXNARD CALIFORNIA
1200 AM PST MON FEB 08 2016

NOTE: "FAIR" INDICATES FEW OR NO CLOUDS BELOW 12,000 FEET WITH NO
SIGNIFICANT WEATHER AND/OR OBSTRUCTIONS TO VISIBILITY.

  -  STATIONS PRECEEDED BY AN ASTERISK (*) ARE NOT NWS OR FAA
     STATIONS AND ARE NOT SUBJECT TO NWS AND FAA QUALITY CONTROL.

CAZ041-042-087-080900-
LA AND ORANGE COUNTY COASTAL AREAS


CITY           SKY/WX    TMP DP  RH WIND       PRES   REMARKS
L.A. DOWNTOWN  CLEAR     60  35  39 CALM      30.12F
L.A. AIRPORT   CLEAR     65  29  25 CALM      30.12F
LONG BEACH     CLEAR     61  35  37 NW3       30.12S

CITY           SKY/WX    TMP DP  RH WIND       PRES   REMARKS
FULLERTON      CLEAR     61  30  31 CALM      30.11S
HAWTHORNE      CLEAR     59  33  37 CALM      30.13S
*LOS ALAMITOS  FAIR      62  30  29 CALM      30.12R
*REDONDO BEACH   N/A     56  29  36 CALM      30.13S
SANTA ANA      CLEAR     73  19  13 E7        30.11S
STA MONICA APT CLEAR     64  26  23 N3        30.13S
*UCLA            N/A     72  19  14 N5        30.11S

$$

CAZ547-548-048-080900-
LA COUNTY VALLEYS AND INLAND EMPIRE


CITY           SKY/WX    TMP DP  RH WIND       PRES   REMARKS
BURBANK        CLEAR     74  19  12 NE6       30.13F
VAN NUYS       CLEAR     72  22  15 N9        30.15S

CITY           SKY/WX    TMP DP  RH WIND       PRES   REMARKS
CORONA AIRPORT SUNNY     71  23  16 E14       30.18S
*CHATSWORTH      N/A     73  27  18 N10       30.15S
CHINO          CLEAR     75  19  12 E13G25    30.16S
MARCH AFB      CLEAR     60  19  20 N9        30.20R
*NORTHRIDGE      N/A     72  18  13 N5G14       N/A
ONTARIO        CLEAR     74  17  11 NE18G33   30.15S
*PASADENA        N/A     61  30  31 CALM        N/A
RIVERSIDE      CLEAR     72  19  13 NE10G20   30.19R
SAN BERNARDINO NOT AVBL
*SAN GABRIEL     N/A     58  33  39 NW2       30.20S
*WHITEMAN AP   NOT AVBL
*WOODLAND HILL   N/A     72  19  14 VRB2        N/A

$$

CAZ054-055-080900-
LA AND SAN BERNARDINO COUNTY MOUNTAINS


CITY           SKY/WX    TMP DP  RH WIND       PRES   REMARKS
*ACTON           N/A     64  21  19 NW16G33     N/A
*BIG BEAR AIRP SUNNY     28  19  69 CALM      30.45S
*BIG PINES       N/A     40  18  40 CALM        N/A
*CHILAO          N/A     51  15  23 NE33        N/A
SANDBERG       CLEAR     53  19  26 E32G44    30.34F
*WARM SPRINGS    N/A     56  41  57 E38G51      N/A

$$

CAZ028-029-059-060-099-080900-
ANTELOPE VALLEY AND SURROUNDING AREAS


CITY           SKY/WX    TMP DP  RH WIND       PRES   REMARKS
LANCASTER      CLEAR     45  23  42 SW8       30.36R
PALMDALE       CLEAR     49  24  37 SE14      30.35R

CITY           SKY/WX    TMP DP  RH WIND       PRES   REMARKS
29 PALMS       CLEAR     56  18  22 NW12      30.39R
BARSTOW/DAGGET CLEAR     53  22  29 SE3       30.35R
BISHOP         PTCLDY    42  26  53 NW12      30.52S
CHINA LAKE     CLEAR     51  24  34 SW7       30.35S
EDWARDS AFB    CLEAR     43  22  43 S1        30.33S
MOJAVE         CLEAR     43  27  52 CALM      30.36S
NEEDLES        CLEAR     63  18  17 N18       30.27S
VICTORVILLE      N/A     39  19  45 CALM      30.36S

$$

CAZ039-040-080900-
VENTURA AND SANTA BARBARA COUNTY COAST


CITY           SKY/WX    TMP DP  RH WIND       PRES   REMARKS
CAMARILLO      CLEAR     76  22  13 E24G38    30.13F
NWS OXNARD       N/A     76  23  14 NE9       30.12S
OXNARD AIRPORT CLEAR     76  23  14 E16       30.13F
*POINT MUGU    CLEAR     75  26  16 NE18G26   30.14S
SBA APT/GOLETA CLEAR     50  40  68 CALM      30.13F
*SANTA BARBARA   N/A     56  38  51 CALM      30.20F
*VENTURA         N/A     74  25  16 NE8       30.11F

$$

CAZ044-045-080900-
VENTURA COUNTY VALLEYS


CITY           SKY/WX    TMP DP  RH WIND       PRES   REMARKS
*SIMI VALLEY     N/A     71  27  19 NE10      30.09F
*WESTLAKE VILL   N/A     71  31  22 CALM      30.14S
*OJAI            N/A     47  37  66 CALM      30.10F
*FILLMORE        N/A     74  33  22 NE5       30.07F

$$

CAZ053-080900-
VENTURA COUNTY MOUNTAINS


CITY           SKY/WX    TMP DP  RH WIND       PRES   REMARKS
*LOCKWOOD VLY    N/A     48  18  29 CALM        N/A
*ROSE VALLEY     N/A     50  25  37 MISG        N/A

$$

CAZ034-035-036-080900-
CENTRAL COAST AND SANTA YNEZ VALLEY


CITY           SKY/WX    TMP DP  RH WIND       PRES   REMARKS
SAN LUIS OBISP CLEAR     51  41  68 CALM      30.15F
SANTA MARIA    CLEAR     50  39  66 E3        30.16F

CITY           SKY/WX    TMP DP  RH WIND       PRES   REMARKS
*CAL POLY SLO    N/A     66  41  39 NE13G23     N/A
*LOMPOC        CLEAR     46  36  66 E8        30.16S
*SANTA YNEZ    FAIR      50  37  62 CALM      30.17F

$$

CAZ037-038-051-080900-
SAN LUIS OBISPO COUNTY INTERIOR AND CUYAMA VALLEY


CITY           SKY/WX    TMP DP  RH WIND       PRES   REMARKS
*CUYAMA          N/A     48  33  55 E2        30.25S
PASO ROBLES    CLEAR     43  41  93 CALM      30.23F

$$

CAZ032-033-061-080900-
SOUTHERN DESERTS


CITY           SKY/WX    TMP DP  RH WIND       PRES   REMARKS
BLYTHE         CLEAR     63  23  21 NW9       30.19R
IMPERIAL       CLEAR     50  27  40 W7        30.15F
PALM SPRINGS   CLEAR     72  21  14 NW6       30.24R
THERMAL        CLEAR     62  19  19 N7        30.17S

$$

ELSEWHERE ACROSS THE WESTERN UNITED STATES AND MEXICO


CITY           SKY/WX    TMP DP  RH WIND       PRES   REMARKS
DEATH VALLEY,    N/A     64  26  24 CALM        N/A
DENVER, CO     CLOUDY    21  13  71 S13       30.36F WCI   9
GRAND CANYON,  PTCLDY    39  15  37 NE16G29   30.47F WCI  30
HONOLULU, HI   PTCLDY    66  54  63 NW3       30.06R
KAHULUI, MAUI  PTCLDY    70  52  52 MISG      30.05
LAKE TAHOE, CA CLEAR     26  22  84 S3        30.55S
LAS VEGAS, NV  CLEAR     53  23  31 NE8       30.38S
MAMMOTH LAKES, FAIR      28  19  69 CALM      30.59S
MEXICO CITY, M PTCLDY    48  27  43 NE6       30.36S
PHOENIX, AZ    PTCLDY    56  30  37 CALM      30.16R
PORTLAND, OR   CLEAR     45  39  79 NW3       30.46R
RENO, NV       CLEAR     34  27  75 CALM      30.61S
SALT LAKE CITY PTCLDY    27  24  89 SE6       30.68R WCI  20
SAN DIEGO, CA  CLEAR     61  27  27 CALM      30.12S
SAN FRANCISCO, CLEAR     57  51  80 NE10      30.20S
SAN JOSE, CA   CLEAR     52  42  69 SE5       30.20F
SEATTLE, WA    CLEAR     42  38  85 N8        30.50S
TIJUANA, MEX   CLEAR     59  28  31 CALM      30.14R

$$

STATION/POSITION TIME  TEMP    WIND        PRES    VSBY  WAVE
                       AIR SEA DIR/SP/G                  HT/PER
                 (UTC) (F)     (DEG/KT/KT) (MB)    (MI)  (FT/S)
POINT ARGUELLO B NOT AVBL
WEST SANTA BARBA 0750   61 58   70/  4/  6 1019.8F         5/13
POINT CONCEPTION NOT AVBL
EAST SANTA BARBA 0800   60 59   70/  2/  4 1020.9F
SANTA MONICA BAY 0750   64 59   80/  4/  6 1020.2S         3/13



USA.gov is the U.S. government's official web portal to all federal, state and local government web resources and services.